Location: Atherton
(17.2661°S, 145.4859°E)
Time: 23:29:37
(UTC+10:00)

Hubble Space Telescope - Pass Details

Date: 21 May 2025
Orbit: 488 x 491 km, 28.5° (Epoch: 15 June)

Event Time Altitude Azimuth Distance (km) Brightness Sun altitude
Rises 19:35:28 0° 237° (WSW) 2,567 4.8 -24.3°
Reaches altitude 10° 19:37:54 10° 225° (SW) 1,685 3.6 -24.9°
Enters shadow 19:39:12 18° 212° (SSW) 1,274 2.8 -25.2°
